RH
73 74 72 69 67 66 70 71 64 62 72 81 86 87 85 82 80 81 82 82 78 73 77 88 96 99 99 98 92 78 57 41 34 31 32 37 41 43 43 43 41 39 38 40 44 49 53 58 64 70 73 74
62 62 64 65 62 60 60 63 62 61 63 68 73 77 78 81 83 82 78 73 66 60 72 89 97 100 100 99 99 95 84 68 53 42 40 46 52 55 55 54 52 50 50 55 62 65 66 68 73 78 81 81
62 59 58 61 62 59 56 57 57 55 57 57 60 65 69 73 76 76 70 64 55 53 78 99 100 99 99 99 98 96 94 89 78 64 55 56 67 72 73 70 65 63 64 70 78 82 83 84 85 85 85 86
65 61 56 56 61 71 77 81 76 65 59 55 55 57 61 63 65 67 63 57 52 53 75 95 100 99 99 99 99 99 98 98 94 86 75 74 86 93 89 82 76 75 76 80 85 90 94 94 92 87 84 81
64 63 58 53 50 63 80 92 96 88 76 68 71 74 71 64 61 66 67 61 53 51 63 81 95 97 98 100 99 100 100 100 98 93 86 86 97 102 98 92 88 87 88 91 92 93 96 94 88 80 74 69
57 62 65 61 51 54 61 71 85 94 91 84 87 94 93 81 70 70 74 73 64 54 55 69 86 93 98 100 99 101 100 101 99 95 91 93 100 101 98 96 91 89 89 92 94 93 93 89 82 71 57 49
58 57 65 68 60 59 58 59 71 84 93 95 95 99 101 93 80 72 72 78 79 71 62 59 68 79 90 97 98 97 97 98 97 96 96 96 98 98 96 93 89 85 83 84 85 85 82 77 72 62 50 41
70 64 68 72 64 60 59 63 73 78 85 93 97 99 100 96 87 78 77 82 88 91 84 71 68 70 76 86 89 89 93 93 91 95 98 95 92 91 89 83 80 78 76 75 73 71 66 61 56 51 48 46
71 75 82 86 78 69 61 62 70 76 81 83 87 96 100 100 98 90 87 88 87 94 99 93 89 84 76 76 79 83 89 90 89 92 92 86 78 73 70 66 65 63 60 59 57 55 52 49 46 44 45 47
55 69 84 93 96 91 80 74 71 68 73 76 78 89 96 99 101 93 87 90 88 91 99 98 98 99 91 84 84 83 84 89 92 87 77 72 67 61 58 55 53 50 46 45 44 43 42 42 42 43 45 48
32 48 67 82 95 101 96 90 83 71 66 71 76 84 94 97 100 98 90 90 93 93 94 95 97 100 99 94 91 86 84 90 93 84 72 68 65 61 57 53 49 46 43 41 40 41 42 43 44 45 47 49
14 24 42 59 74 89 96 89 80 76 68 65 68 74 87 94 94 98 92 85 91 99 97 97 98 98 97 95 94 92 91 93 93 88 81 75 69 61 56 53 51 49 48 46 43 44 45 46 45 46 48 50
8 11 21 34 45 60 82 87 77 72 65 62 66 68 77 90 92 91 92 91 92 99 101 100 99 97 98 98 98 99 97 98 97 94 93 90 84 79 76 73 74 78 77 69 59 54 53 53 53 56 59 63
6 7 11 18 26 32 52 77 87 82 71 69 75 77 75 82 95 96 97 101 98 98 99 100 100 98 100 100 100 101 100 101 99 98 100 98 95 96 96 91 91 97 98 91 84 78 74 73 75 79 83 86
4 6 7 10 15 18 24 43 67 82 88 89 87 86 78 75 91 101 99 101 99 98 99 99 100 100 100 100 101 101 100 101 100 100 101 98 95 95 97 95 93 96 100 99 98 95 92 91 91 95 98 99
5 5 6 7 9 11 13 18 33 53 75 94 98 93 86 81 90 97 99 101 98 97 100 99 100 101 100 100 100 100 99 100 101 101 100 98 96 95 98 99 96 98 100 101 101 99 97 98 98 99 100 100
8 7 6 6 8 9 10 11 17 28 41 65 89 100 96 91 93 96 98 100 97 96 100 100 99 100 101 100 99 99 99 99 99 99 99 100 98 96 100 100 96 98 100 100 102 100 99 99 101 100 100 99
7 9 8 7 7 8 10 10 11 17 22 30 52 81 98 100 98 98 98 100 100 98 99 100 99 99 101 100 99 100 100 98 97 98 99 100 98 97 101 101 97 98 100 101 101 100 99 99 101 101 100 100
6 8 9 9 8 7 8 10 9 11 14 17 22 41 69 92 100 101 100 99 100 100 99 100 100 101 101 100 100 99 99 98 99 100 99 99 100 100 101 101 101 100 100 100 100 100 100 98 100 101 100 101
5 6 8 9 10 9 7 7 9 9 10 12 14 16 31 57 78 91 98 100 100 100 101 100 100 101 101 100 100 97 97 99 100 100 100 101 100 99 99 100 102 101 99 100 100 100 100 99 101 101 100 100
4 5 6 8 9 9 9 7 7 8 9 9 10 12 14 25 43 58 72 86 93 94 97 100 100 100 100 101 101 99 99 100 100 100 101 101 96 95 100 101 101 100 99 100 100 100 100 100 100 99 99 99
4 5 5 7 8 9 9 9 8 7 8 8 8 10 11 13 20 29 37 51 68 76 80 87 90 91 94 97 99 99 98 98 100 101 100 100 96 95 100 101 100 100 100 100 100 99 99 98 97 96 98 100
4 5 5 5 6 7 9 9 10 9 7 7 7 8 9 9 11 15 17 23 37 48 53 60 67 70 74 82 88 90 92 94 97 99 100 100 97 95 98 101 100 100 100 100 100 99 99 98 98 97 99 100
4 4 5 5 5 6 7 8 9 10 9 8 7 7 8 8 8 9 11 12 19 28 31 35 41 47 51 59 67 72 75 80 84 87 90 92 93 92 94 98 100 101 100 100 100 100 100 100 100 100 100 99
4 4 4 5 5 5 5 7 8 9 10 10 9 8 7 8 8 8 9 10 12 17 20 23 27 31 35 40 47 52 56 61 65 69 71 75 79 82 85 89 94 99 99 99 100 100 100 100 100 100 100 100
4 4 4 4 4 5 5 5 6 7 9 10 10 10 9 8 9 8 9 10 11 13 14 18 23 25 27 30 33 37 41 45 48 51 53 56 60 64 68 72 76 83 89 93 97 100 101 101 101 100 99 100
4 4 4 4 4 4 5 5 6 6 7 8 9 10 10 9 9 9 9 10 12 14 14 15 19 22 24 24 26 29 31 34 36 37 40 43 47 50 54 56 59 63 70 77 84 91 97 100 101 100 99 99
4 5 4 4 4 4 4 4 4 5 5 6 7 7 8 9 10 10 10 10 11 13 15 14 15 18 21 22 22 23 25 27 29 29 31 33 36 40 43 47 50 51 53 59 68 76 82 89 94 96 99 99
4 4 4 4 4 4 4 4 4 4 4 5 5 6 6 7 8 8 9 10 10 11 13 15 15 15 16 18 19 20 21 22 23 24 25 27 30 34 38 42 45 45 45 47 54 60 63 69 76 86 98 101
6 5 5 4 4 4 4 4 4 4 4 4 5 5 5 6 6 7 7 7 8 9 10 12 15 15 15 16 17 19 20 22 22 22 22 22 23 27 32 36 40 41 43 45 50 53 57 60 64 76 92 98
7 6 5 5 4 5 4 4 4 4 4 4 4 4 4 5 5 6 6 6 6 7 8 9 10 13 14 15 15 16 18 21 23 23 22 23 23 25 29 33 38 42 44 45 47 51 56 60 61 66 75 80
Wind_Speed
56 55 54 53 52 52 51 51 52 51 51 52 52 52 53 53 54 54 53 53 53 52 50 50 49 48 50 54 58 61 62 61 59 57 56 56 56 56 56 56 56 57 57 57 57 56 55 54 52 52 51 51
58 57 55 53 52 52 52 52 52 52 53 53 53 52 52 52 52 52 53 54 53 52 49 47 46 46 48 52 57 60 62 62 61 59 58 56 56 57 57 57 57 58 58 57 56 55 54 53 52 51 51 51
60 58 55 53 51 50 50 51 53 54 54 55 54 54 53 53 52 53 54 54 54 52 48 47 48 51 52 52 55 57 59 61 61 61 60 57 56 56 56 57 58 58 58 56 55 54 53 51 51 50 50 50
63 61 57 54 53 50 46 47 52 54 54 54 54 55 55 54 53 54 55 55 54 51 49 50 51 51 50 50 50 51 53 56 59 60 59 56 53 52 53 56 57 57 56 55 54 53 51 50 49 49 49 49
65 64 60 57 56 54 50 47 49 52 52 51 52 55 55 55 54 53 54 54 54 51 49 48 48 47 46 46 46 47 49 51 54 56 56 53 49 47 50 53 54 54 53 52 52 52 51 49 48 47 48 48
66 65 62 59 59 58 57 55 53 53 52 50 51 55 54 54 55 54 54 53 53 51 49 48 46 45 44 45 46 46 47 48 49 51 51 50 49 48 47 49 51 51 51 51 51 50 50 48 47 46 46 46
67 66 63 60 61 61 59 59 59 56 53 51 51 54 55 55 56 56 55 54 52 50 49 49 47 46 45 46 47 46 47 48 47 48 50 50 50 50 48 48 50 51 52 52 51 50 49 48 46 45 45 45
66 65 63 61 62 63 61 60 60 59 57 54 52 54 55 55 56 56 55 54 53 50 48 48 48 48 47 47 49 47 48 50 48 48 50 51 51 51 50 49 50 51 52 52 52 51 50 48 47 46 45 46
65 64 62 60 60 62 64 63 61 60 58 55 55 55 53 52 52 53 54 55 55 52 48 47 48 49 48 48 48 47 49 51 50 50 52 53 53 53 53 52 51 51 52 52 52 51 50 49 48 47 46 47
65 65 64 62 60 60 61 62 61 62 60 56 58 59 56 52 51 52 53 54 55 54 50 49 50 48 48 48 47 46 49 51 52 55 54 54 54 54 55 53 52 52 52 52 52 51 50 50 50 49 48 49
66 65 65 64 64 63 62 61 60 62 62 61 61 60 56 50 48 52 56 55 53 53 53 52 52 49 47 48 48 49 51 53 55 55 54 53 54 55 55 54 53 53 52 52 52 51 51 51 51 50 51 51
69 67 65 64 65 66 66 66 64 64 64 65 65 64 60 52 50 52 56 58 55 54 52 49 50 49 48 48 50 52 53 54 55 53 52 53 54 54 55 55 54 54 54 54 54 53 51 51 52 52 53 53
69 70 68 64 62 62 65 67 66 65 64 65 66 67 61 52 54 55 53 56 56 54 50 46 46 47 48 50 51 52 52 53 52 50 51 53 53 53 55 56 55 55 55 54 54 53 52 52 53 54 55 55
65 68 70 69 65 61 61 63 64 63 63 64 65 66 59 50 51 50 44 45 46 46 45 43 44 47 50 51 51 52 51 51 51 49 50 53 53 54 56 57 55 55 55 53 51 52 52 53 54 55 55 56
56 62 67 70 69 66 62 61 61 60 60 61 63 64 61 56 54 48 40 40 40 40 43 44 46 49 50 50 50 51 50 50 51 51 52 53 54 56 57 58 57 57 56 53 52 53 53 54 54 56 57 57
46 54 60 64 68 69 67 65 62 60 59 61 62 63 62 61 60 54 48 47 44 42 41 41 44 48 49 48 48 50 51 50 50 51 53 55 56 57 59 59 58 56 54 53 53 54 54 55 56 57 57 58
38 45 52 57 62 65 67 67 66 63 61 61 63 63 63 64 63 60 58 56 53 50 45 40 38 42 46 47 48 50 51 49 49 52 56 60 59 59 59 59 57 55 55 57 57 58 57 58 59 59 58 58
31 38 44 50 54 59 62 64 66 66 65 64 64 64 63 64 66 65 64 63 61 59 57 52 44 41 44 46 45 46 46 48 52 54 57 60 59 58 57 57 59 59 58 59 59 60 60 60 60 59 58 57
27 32 38 44 49 53 57 60 62 64 66 65 65 66 64 64 65 67 67 66 65 62 61 62 58 51 48 48 45 42 43 47 50 51 53 58 59 56 54 55 57 58 57 57 57 57 58 58 57 56 56 56
25 28 31 37 43 48 52 55 58 61 63 64 65 66 66 65 65 66 67 67 67 64 63 65 66 63 58 56 53 46 44 46 46 47 51 55 55 51 52 53 53 54 55 57 57 56 57 57 56 56 57 56
25 26 28 32 37 42 47 51 54 57 59 61 63 65 66 66 66 66 67 68 68 67 67 69 71 69 65 63 63 56 52 51 48 49 51 53 51 48 49 50 50 52 55 58 59 59 59 58 57 58 57 58
24 25 26 29 32 36 41 45 49 52 55 59 61 63 64 66 67 67 68 69 70 70 70 71 73 73 70 67 69 66 62 60 57 53 51 51 51 49 48 49 51 53 55 57 58 58 58 57 57 57 56 58
25 25 25 27 29 32 36 40 45 48 51 55 58 60 63 64 65 66 68 70 71 72 71 72 73 74 73 71 73 72 68 65 64 61 55 54 56 55 53 53 53 53 53 53 54 55 55 54 54 54 53 55
25 25 25 26 28 30 32 36 40 44 47 51 54 57 60 62 64 65 66 68 71 73 72 71 71 72 73 73 74 75 73 70 69 69 67 65 66 64 61 59 56 52 49 49 53 53 50 50 51 52 53 55
27 26 26 26 27 28 30 33 36 40 44 47 50 54 57 59 61 63 65 65 67 70 71 70 69 69 70 71 73 74 75 74 72 72 73 72 72 70 67 66 63 59 53 51 53 54 52 51 50 51 52 54
28 28 27 27 27 28 29 31 33 36 39 43 46 50 54 57 59 61 62 63 63 65 68 69 68 68 68 69 71 72 73 73 73 73 74 73 74 73 72 70 70 69 66 61 60 60 60 59 56 52 52 52
30 30 30 29 29 29 29 30 31 33 36 38 42 45 49 53 56 58 60 61 61 61 63 66 68 67 67 68 69 70 71 71 72 73 73 73 73 73 73 72 72 72 72 70 68 68 67 66 62 57 55 55
33 32 32 32 32 31 31 32 32 33 34 35 37 40 43 47 51 54 57 59 61 61 60 62 65 67 67 67 67 68 69 70 71 71 72 73 72 71 71 71 71 72 73 72 70 71 71 71 70 68 65 63
36 35 35 35 34 34 34 34 34 34 35 36 36 37 39 42 45 48 51 54 57 60 61 61 62 64 66 67 67 67 67 68 68 69 69 70 70 69 68 68 68 69 71 71 70 71 72 73 74 72 69 66
39 38 39 38 38 37 36 36 36 36 36 37 38 38 39 40 42 44 46 48 51 54 57 60 61 63 64 66 66 66 66 65 65 66 67 68 69 69 67 67 66 66 67 68 69 69 71 72 73 71 70 68
41 41 41 41 40 40 39 39 39 39 39 39 39 40 40 41 42 43 44 45 47 49 51 55 58 61 63 64 66 67 67 65 65 65 66 66 67 67 67 66 66 65 66 66 67 68 69 70 72 72 73 72
Wind_Direction
250 251 252 252 253 255 257 259 260 261 262 260 259 257 256 256 257 258 259 260 261 263 266 268 268 269 269 268 267 265 264 264 264 265 266 268 269 270 271 271 272 272 273 273 274 274 275 276 277 277 277 277
249 250 253 256 258 258 260 261 262 263 264 264 263 262 261 260 260 260 261 261 262 264 269 270 268 267 267 267 267 266 265 265 265 266 267 269 271 272 272 272 272 272 272 272 273 273 274 274 275 276 276 276
249 248 249 254 257 259 262 263 264 263 263 264 265 265 265 264 263 263 264 265 265 266 267 266 265 265 266 267 269 268 268 267 267 267 267 269 272 274 274 274 274 273 273 273 273 273 273 273 274 274 275 275
250 249 247 248 251 254 257 261 264 262 262 263 264 265 265 265 265 265 266 267 268 267 264 264 267 269 269 270 270 270 270 269 269 269 269 271 273 274 274 274 273 273 274 274 273 273 273 273 273 274 274 275
247 249 248 247 247 248 249 252 258 259 259 260 261 262 262 262 263 263 264 265 267 267 266 266 268 270 271 270 270 269 268 269 271 272 272 272 273 273 271 271 271 272 273 273 273 272 272 271 272 273 274 275
245 246 246 246 245 246 247 247 251 255 257 256 254 256 259 261 262 262 263 264 266 267 267 266 266 267 268 267 267 266 265 266 270 273 274 272 271 271 269 269 269 270 270 270 271 271 271 271 271 273 274 275
246 245 244 244 244 245 245 247 249 252 255 255 254 254 257 261 262 263 264 265 265 266 267 267 266 266 265 265 265 265 265 266 268 271 272 270 269 270 269 268 268 269 269 269 270 271 271 272 273 273 274 275
247 247 245 245 245 245 245 246 248 251 253 256 259 259 260 262 262 263 264 264 265 267 267 267 267 266 265 265 266 267 268 268 268 268 268 268 268 269 269 269 269 270 270 271 272 272 273 274 274 274 274 275
245 246 246 246 247 246 245 245 246 249 251 255 260 262 263 265 264 264 265 266 267 268 267 266 266 265 264 264 266 268 268 268 267 264 264 266 268 269 270 271 271 272 273 274 274 275 275 275 275 274 274 274
243 244 243 243 244 244 243 244 246 248 249 252 255 258 261 266 268 268 268 270 269 267 266 267 266 264 263 263 264 264 264 264 264 264 265 267 269 270 271 272 272 272 273 274 275 275 274 274 274 274 273 273
242 243 243 242 243 243 242 243 245 247 249 250 252 254 257 262 266 267 267 268 270 268 266 267 265 262 262 262 261 260 260 262 263 265 267 268 268 270 270 271 271 272 273 273 273 273 273 273 273 273 273 274
242 243 244 244 244 245 245 244 246 248 248 249 251 252 254 261 266 266 267 266 268 269 264 262 261 262 262 261 260 259 259 260 262 265 268 268 268 269 270 271 271 272 271 271 271 270 271 272 273 274 274 274
244 243 244 245 245 246 246 246 247 247 248 249 251 251 252 260 265 265 266 264 265 266 261 258 260 261 262 261 261 260 260 262 263 266 266 267 268 268 269 270 270 271 271 269 269 269 270 272 273 274 274 274
246 244 244 245 247 247 247 245 245 245 247 249 249 250 249 249 254 258 260 260 261 260 256 257 259 260 260 261 261 260 261 262 263 264 264 265 267 267 269 270 271 270 270 269 269 270 272 273 273 274 274 274
252 248 245 245 247 248 249 247 246 245 246 248 248 248 246 242 247 256 260 257 257 255 252 252 253 254 255 258 260 260 260 262 264 264 264 264 265 267 268 269 270 268 267 268 269 271 274 275 276 276 276 274
260 253 250 248 248 248 249 249 249 248 246 248 248 247 245 241 243 250 253 252 253 253 250 248 249 251 252 254 256 258 258 259 263 265 265 265 266 268 267 264 264 262 263 266 269 272 274 275 276 277 277 275
272 261 255 252 251 250 250 250 251 251 249 248 248 248 246 242 241 243 247 250 251 252 251 249 251 250 247 249 250 251 253 256 261 263 261 261 262 264 263 260 259 258 262 266 269 272 274 274 275 275 275 275
283 271 262 257 254 253 253 252 252 252 252 250 250 249 247 244 242 243 246 250 252 254 254 251 251 249 245 246 249 251 256 259 259 259 257 254 253 256 259 261 261 262 265 268 270 272 273 272 273 273 273 273
293 280 270 263 258 256 255 255 254 253 254 253 253 253 251 248 246 245 247 250 253 254 253 250 248 250 249 250 253 258 266 264 256 256 257 256 254 256 260 263 264 267 270 270 269 269 270 272 272 272 272 272
302 290 279 270 263 259 258 257 256 255 256 256 255 256 256 254 252 250 250 252 254 254 254 254 251 250 251 253 255 261 269 267 259 260 263 262 262 266 269 266 265 269 271 269 267 268 269 271 271 272 273 274
309 299 289 280 271 264 261 259 258 257 257 258 258 258 259 259 257 256 256 255 256 257 257 258 258 255 254 254 255 259 263 266 266 268 270 270 270 276 277 271 270 270 270 269 268 270 271 272 273 274 275 275
311 304 296 288 280 272 266 262 260 258 258 258 259 259 259 260 260 260 260 260 259 260 260 260 262 262 260 257 258 261 264 265 267 267 267 268 270 274 273 268 270 271 271 272 273 275 276 275 275 275 274 272
310 306 300 294 288 281 274 268 263 260 259 258 258 259 259 260 261 261 262 262 262 262 263 263 264 266 266 264 263 266 268 266 266 265 263 263 265 268 267 265 270 274 274 276 278 278 277 276 274 273 271 270
306 304 301 297 292 287 282 275 269 264 262 260 259 259 260 260 260 261 262 263 263 263 265 266 267 268 269 269 268 270 271 271 270 268 267 267 268 269 269 267 270 275 276 278 277 273 271 272 271 271 271 271
302 301 299 296 293 290 286 281 275 270 266 263 261 260 260 260 261 261 262 263 263 264 265 267 268 269 270 270 271 271 273 274 274 272 271 272 273 274 273 271 270 273 274 276 274 269 268 270 270 270 271 271
297 297 296 294 292 289 287 284 281 276 271 268 265 263 261 261 262 261 262 263 264 264 265 267 268 268 269 270 271 272 273 274 275 275 275 274 275 275 276 275 274 273 273 273 273 272 273 272 270 269 272 274
292 292 292 292 290 288 286 284 282 279 276 273 270 267 265 263 263 262 262 263 264 264 264 266 267 268 269 269 270 271 272 273 274 275 276 276 277 277 278 277 276 275 275 274 273 274 276 274 271 270 273 278
287 287 288 288 288 287 286 284 283 281 279 277 274 272 270 267 266 265 264 263 264 264 263 264 266 268 269 269 269 270 271 273 273 274 275 276 277 277 278 278 277 277 276 276 275 274 275 274 273 274 277 279
284 284 285 285 285 284 284 283 283 282 280 279 278 276 274 272 270 268 267 266 265 265 265 265 264 265 267 269 270 270 270 270 271 272 273 274 275 276 276 276 276 277 277 276 275 275 275 275 275 276 278 278
283 283 283 283 284 283 283 283 282 281 280 279 278 277 276 275 274 273 272 270 269 268 268 268 267 266 266 267 269 270 271 271 271 271 271 272 273 274 274 275 275 275 276 275 274 274 274 274 274 275 275 275
283 283 282 282 283 284 284 284 283 282 281 280 279 278 277 276 275 275 275 274 273 271 270 270 270 269 268 267 268 269 270 271 272 272 272 272 272 272 273 273 274 273 273 273 273 272 272 271 272 272 272 273